Location: A�t �Alizem
(31.2076°N, 8.7872°W)
Time: 06:35:10
(UTC+00:00)

ADEOS Rocket - Pass Details

Date: 27 November 2020
Orbit: 859 x 1306 km, 98.7° (Epoch: 16 January)

Event Time Altitude Azimuth Distance (km) Brightness Sun altitude
Rises 17:43:11 0° 6° (N) 4,271 6.0 -2.9°
Reaches altitude 10° 17:45:56 10° 2° (N) 3,317 5.5 -3.4°
Maximum altitude 17:53:26 54° 288° (WNW) 1,546 4.5 -4.9°
Drops below altitude 10° 18:00:47 10° 214° (SW) 3,246 6.7 -6.4°
Sets 18:03:27 0° 210° (SSW) 4,172 7.2 -6.9°
